This is the latest recevied weather packets stored in our database for station/object N6SPP. If no packets are shown the sender has not sent any weather packets the latest 10 day(s).
| Time | Temp. | Humidity | Pressure | Rain* | Wind** | Luminosity | Snow |
|---|---|---|---|---|---|---|---|
| 1777457434 | 15.56° C | 61% | 1020.1 hPa | 0 mm | - | 0 W/m² | - |
| 1777457129 | 15.56° C | 59% | 1019.9 hPa | 0 mm | - | 0 W/m² | - |
| 1777456826 | 16.11° C | 58% | 1020 hPa | 0 mm | - | 0 W/m² | - |
| 1777456520 | 16.11° C | 57% | 1020.1 hPa | 0 mm | - | 0 W/m² | - |
| 1777456216 | 16.11° C | 57% | 1020 hPa | 0 mm | - | 0 W/m² | - |
| 1777455912 | 16.11° C | 57% | 1020.2 hPa | 0 mm | - | 0 W/m² | - |
| 1777455609 | 16.11° C | 57% | 1020.1 hPa | 0 mm | - | 0 W/m² | - |
| 1777455306 | 16.11° C | 57% | 1020.2 hPa | 0 mm | - | 0 W/m² | - |
| 1777455003 | 16.11° C | 57% | 1020.1 hPa | 0 mm | - | 0 W/m² | - |
| 1777454700 | 16.11° C | 58% | 1020.1 hPa | 0 mm | - | 0 W/m² | - |
| 1777454395 | 16.11° C | 59% | 1020.1 hPa | 0 mm | - | 0 W/m² | - |
| 1777454092 | 16.11° C | 58% | 1020.2 hPa | 0 mm | - | 0 W/m² | - |
| 1777453789 | 16.11° C | 58% | 1020.3 hPa | 0 mm | - | 0 W/m² | - |
| 1777453486 | 16.11° C | 59% | 1020.3 hPa | 0 mm | - | 0 W/m² | - |
| 1777453183 | 16.11° C | 59% | 1020.5 hPa | 0 mm | - | 0 W/m² | - |
| 1777452879 | 16.11° C | 59% | 1020.4 hPa | 0 mm | - | 0 W/m² | - |
| 1777452577 | 16.11° C | 56% | 1020.8 hPa | 0 mm | - | 0 W/m² | - |
| 1777452273 | 16.11° C | 55% | 1020.4 hPa | 0 mm | - | 0 W/m² | - |
| 1777451973 | 16.11° C | 57% | 1020.7 hPa | 0 mm | - | 0 W/m² | - |
| 1777451669 | 16.11° C | 58% | 1020.6 hPa | 0 mm | - | 0 W/m² | - |
| 1777451364 | 16.11° C | 58% | 1020.7 hPa | 0 mm | - | 0 W/m² | - |
| 1777451060 | 16.11° C | 59% | 1020.7 hPa | 0 mm | - | 0 W/m² | - |
| 1777450756 | 16.11° C | 59% | 1020.7 hPa | 0 mm | - | 0 W/m² | - |
| 1777450452 | 16.11° C | 58% | 1020.6 hPa | 0 mm | - | 0 W/m² | - |
| 1777450148 | 16.11° C | 59% | 1020.6 hPa | 0 mm | - | 0 W/m² | - |
* Rain latest hour (hover to see other rain measurements)
** Current wind speed in m/s (hover to see current wind gust speed)